Temperature
26 23 22 23 23 24 24 24 22 22 22 20 19 18 18 18 18 18 18 19 18 18 18 18 18 18 18 18 18 18 18 17 17 17 16 16 16 16 15 15 15 15 15 15
23 23 25 26 26 25 25 24 22 22 22 20 18 18 18 18 18 18 18 19 19 19 19 19 19 18 18 18 18 18 17 17 17 16 16 15 15 15 14 14 14 14 14 14
24 25 26 26 25 25 24 23 22 21 20 19 18 17 17 17 18 18 19 19 19 19 19 19 19 19 18 18 18 18 17 17 16 16 15 15 15 14 14 14 14 14 14 14
25 26 26 26 25 25 23 24 24 22 19 17 18 17 17 17 17 18 18 19 19 19 20 20 19 19 19 18 18 18 17 17 16 16 15 15 14 13 13 13 13 13 13 13
24 25 25 26 26 26 24 24 23 21 18 17 17 17 17 16 17 17 18 19 20 20 20 20 20 19 19 18 18 17 17 16 16 15 15 14 13 13 12 12 12 12 12 12
24 25 25 26 26 26 24 22 20 18 17 17 17 17 17 16 17 18 18 20 20 20 20 20 20 19 19 18 18 17 17 16 15 14 14 13 13 12 12 11 11 11 12 12
23 24 25 25 25 25 23 20 19 19 17 17 17 17 17 17 18 18 19 20 21 21 20 20 20 19 19 18 17 17 16 15 15 14 13 13 12 12 11 11 11 11 11 11
22 22 24 25 26 25 24 21 20 20 18 17 17 17 17 19 19 20 20 20 20 20 20 20 19 19 18 18 17 16 16 15 14 13 13 12 12 11 11 11 10 10 10 10
22 23 25 26 27 26 25 22 21 18 17 16 17 17 18 19 20 20 20 20 20 20 20 19 19 18 18 17 17 16 15 14 13 13 12 12 11 11 10 10 10 10 9 9
22 23 24 26 26 25 24 23 19 18 18 18 18 18 17 19 19 19 19 20 20 20 19 19 19 18 18 17 16 15 14 14 13 12 12 11 11 10 10 10 9 9 9 9
23 22 24 24 25 25 24 24 19 17 17 17 18 18 19 19 19 18 19 20 20 20 20 19 19 18 17 17 16 15 14 13 13 12 12 11 11 10 10 9 9 9 9 8
23 19 21 23 24 25 24 23 20 19 20 17 17 18 20 18 19 19 20 20 20 20 19 19 18 18 17 16 15 14 13 13 12 12 11 11 10 10 10 9 9 9 8 8
22 19 20 21 21 23 24 24 21 18 17 17 17 19 19 19 19 21 21 20 20 19 19 18 18 17 16 15 14 14 13 13 12 12 11 11 10 10 10 9 9 9 8 8
22 19 20 21 21 22 24 25 23 19 18 19 19 19 19 18 18 19 20 20 20 19 18 18 17 16 16 15 14 13 13 12 12 12 11 11 10 10 9 9 9 8 8 8
21 22 23 23 24 25 25 25 24 22 20 19 19 18 18 17 17 20 20 20 19 18 18 17 17 16 15 14 14 13 13 12 12 11 11 11 10 10 9 9 9 8 8 8
21 22 23 22 24 24 24 25 25 24 23 21 20 19 18 20 20 20 20 19 18 18 18 17 17 16 15 14 13 13 12 12 11 11 11 10 10 9 9 9 8 8 8 7
20 21 21 20 21 22 22 24 25 24 24 22 20 19 18 18 19 19 19 19 19 18 18 17 16 15 15 14 13 13 12 12 11 11 10 10 9 9 9 8 8 7 7 7
20 19 18 19 20 22 21 23 25 23 23 21 20 19 19 19 20 20 20 19 19 18 17 17 16 15 14 14 13 12 12 11 11 10 10 9 9 8 8 8 8 7 7 7
20 20 19 18 20 21 22 24 24 22 21 20 19 19 19 19 18 18 19 19 19 18 17 16 15 15 14 13 13 12 11 11 10 10 9 9 8 8 8 7 7 7 7 7
19 19 19 19 20 20 21 23 24 21 20 21 20 19 20 19 16 17 19 19 18 18 17 16 15 15 14 13 12 12 11 10 10 9 9 8 8 7 7 7 7 7 7 7
21 20 19 19 19 19 22 24 24 21 20 22 22 22 22 20 19 21 20 19 18 18 17 16 15 14 14 13 12 11 10 10 9 9 8 8 7 7 7 7 7 7 7 7
20 19 19 18 19 20 23 24 22 21 23 24 23 23 22 22 21 21 20 19 18 18 17 16 15 14 13 12 12 11 10 9 9 8 8 8 7 7 7 7 7 7 7 7
20 20 18 19 19 22 25 25 26 25 24 24 23 23 23 22 21 21 20 19 18 18 17 16 15 14 13 12 11 10 9 9 8 8 8 7 7 7 7 7 7 7 7 7
20 21 20 20 19 22 25 26 26 25 25 25 24 23 23 22 22 21 20 19 18 18 17 16 15 14 13 12 11 10 9 8 8 8 7 7 7 7 7 7 7 7 7 7
19 20 19 19 19 23 25 26 26 25 25 25 24 24 23 23 22 21 20 19 18 18 17 16 15 14 13 12 11 10 9 8 8 8 7 7 7 7 7 7 7 8 8 8
19 20 19 19 22 20 24 26 26 25 25 25 24 23 23 23 22 21 20 19 19 18 17 16 15 14 13 12 11 10 9 8 8 8 7 7 7 7 7 7 8 9 8 8
Wind_Speed
2 3 7 11 9 8 4 2 1 1 3 6 8 8 6 4 3 1 1 4 5 5 6 7 7 7 6 5 6 5 5 4 4 4 3 3 4 5 5 5 8 7 6 4
2 4 12 13 11 5 4 2 2 1 4 4 6 7 4 0 2 6 6 6 6 5 6 7 7 7 6 6 6 6 6 5 4 3 2 1 1 2 2 3 6 8 9 8
5 5 6 6 6 4 3 6 6 5 5 5 5 2 2 2 3 6 8 7 7 9 10 9 9 9 7 7 8 7 7 6 5 4 2 2 3 3 4 5 5 6 9 9
1 2 3 4 5 2 2 7 11 12 8 2 3 4 5 3 3 5 7 8 10 10 9 9 10 9 8 8 7 8 7 6 5 5 3 3 1 2 3 3 4 7 7 8
4 2 1 1 3 4 5 7 9 10 8 4 2 2 4 2 4 6 8 10 11 10 10 10 9 9 8 7 7 7 6 5 4 4 4 3 2 3 3 4 5 6 6 6
4 2 2 3 3 3 9 7 7 6 5 3 2 1 5 4 6 6 8 10 11 10 9 7 5 5 5 4 5 6 6 4 3 3 3 3 4 4 4 5 4 5 5 6
8 6 2 2 3 4 5 5 4 5 5 1 2 1 7 7 7 9 10 10 9 7 6 5 5 5 4 5 5 5 5 3 3 3 3 3 4 3 4 4 3 4 4 4
4 8 6 2 2 1 1 8 6 3 3 1 3 3 7 7 5 7 8 6 5 5 5 6 6 6 5 5 5 5 4 3 3 3 3 3 2 2 3 3 3 4 4 4
4 6 6 4 1 3 3 1 6 7 5 4 2 4 7 6 3 5 6 6 6 7 7 7 6 6 6 6 5 5 5 3 3 3 3 2 2 2 3 4 4 4 4 5
6 3 6 4 6 5 5 4 7 5 4 3 2 4 5 6 7 6 7 8 7 7 7 7 6 6 5 5 5 4 4 4 3 3 3 3 3 4 4 4 5 6 5 5
3 3 5 5 2 1 4 4 6 5 7 6 4 5 7 11 9 9 8 9 9 9 8 6 6 5 5 5 5 4 4 3 3 4 4 4 4 5 5 5 6 6 6 6
3 5 2 6 5 2 3 5 6 5 0 5 5 5 4 9 9 10 9 9 9 9 8 7 6 5 4 5 4 4 4 4 5 5 5 5 6 6 6 7 8 7 8 8
4 6 4 9 10 6 1 3 6 7 5 5 6 4 2 7 8 9 9 9 8 9 8 5 5 5 5 5 5 5 5 6 5 5 5 5 6 7 7 8 8 8 8 8
6 5 5 5 8 6 4 2 5 7 5 5 7 8 7 8 9 8 9 10 9 8 7 6 4 5 5 6 6 6 6 6 5 5 5 6 7 8 8 8 8 8 8 8
5 2 3 5 6 5 6 5 3 6 9 8 9 11 11 11 11 11 10 9 7 7 6 6 5 4 5 6 6 6 6 6 5 5 6 7 8 8 7 7 8 8 8 9
3 2 3 7 8 9 8 6 0 4 6 7 9 7 9 8 7 7 8 8 8 6 5 5 4 4 5 6 6 6 6 6 5 6 7 7 7 7 7 8 8 8 9 9
3 5 2 5 8 7 6 4 2 4 5 8 7 9 8 7 8 8 8 9 7 7 6 6 5 6 6 7 6 6 7 5 5 6 7 7 7 7 8 8 9 9 9 9
7 5 4 1 6 4 9 7 4 6 3 7 9 8 9 8 7 7 9 9 8 8 7 6 5 6 6 5 5 5 5 5 5 6 7 6 6 7 8 9 9 9 9 9
8 8 5 3 2 7 9 6 4 6 3 5 10 9 8 8 5 1 7 8 9 8 7 6 6 5 4 5 5 4 4 5 6 6 7 7 7 8 9 10 10 10 10 10
5 6 6 4 4 6 9 6 5 9 1 5 8 9 9 9 3 5 8 8 9 8 5 5 4 3 4 5 3 3 5 5 6 7 7 7 7 8 10 10 10 9 9 11
2 2 3 5 6 8 8 5 4 3 8 9 10 10 10 9 8 7 8 9 9 8 6 5 3 2 4 4 2 3 5 6 7 7 7 7 8 9 10 9 9 10 11 11
4 3 3 3 2 7 7 3 5 10 7 9 11 11 11 10 10 9 10 10 10 7 6 4 2 3 3 2 1 3 5 6 6 6 7 8 9 9 10 10 10 10 10 11
2 6 6 7 8 9 8 9 9 9 9 10 11 11 12 11 10 11 10 10 9 8 6 4 3 2 2 1 1 3 5 6 6 6 8 9 9 9 9 9 11 10 9 9
6 2 3 5 9 9 9 9 7 9 11 11 12 12 12 12 12 11 10 9 9 7 6 4 3 2 2 3 3 4 5 5 5 7 8 8 9 10 10 9 8 8 9 9
8 5 4 6 9 7 7 7 9 8 9 9 10 12 14 13 11 11 10 10 9 7 6 5 4 4 4 4 4 4 4 3 5 7 8 8 9 9 10 10 9 10 10 10
6 6 6 8 10 7 8 9 8 7 8 10 10 10 10 12 13 12 12 10 9 8 6 5 5 5 5 4 4 5 4 3 5 7 7 7 8 8 9 10 12 14 13 15
Wind_Direction
213 150 250 252 235 222 219 184 190 290 40 53 66 64 54 49 42 330 174 141 141 159 175 173 172 165 154 144 136 134 119 102 85 64 51 32 357 345 346 348 346 341 330 327
20 243 250 269 279 258 231 178 206 61 76 74 81 71 64 56 230 239 206 178 177 188 188 188 188 183 180 174 167 159 149 135 122 119 127 152 261 310 325 337 348 350 339 326
188 234 269 295 311 300 234 178 186 149 91 68 95 93 206 229 233 224 199 184 188 195 197 197 191 192 188 184 181 172 165 151 145 137 111 48 17 354 348 339 336 331 328 321
260 279 347 355 315 236 216 187 164 153 132 153 190 197 233 200 228 205 190 188 200 206 203 198 192 192 193 193 180 169 164 159 159 147 139 154 172 260 270 282 303 317 326 327
266 267 23 313 262 163 173 153 142 140 127 101 29 146 267 180 219 223 207 201 207 210 206 200 193 189 186 176 166 163 162 169 179 173 169 172 208 239 271 300 321 325 326 332
267 255 208 230 276 140 129 97 77 75 88 66 293 182 273 218 212 217 220 215 212 212 207 193 175 155 151 151 148 155 163 188 205 200 197 194 224 255 289 312 321 321 320 326
334 331 300 215 5 37 101 97 42 19 38 313 293 287 262 248 235 217 222 223 217 203 181 160 145 138 143 149 155 162 168 198 224 219 229 232 238 250 265 274 276 295 309 313
350 319 308 315 167 211 130 129 146 189 169 195 302 272 270 279 256 217 218 217 193 159 139 139 145 144 147 149 152 159 172 202 230 237 258 264 262 239 245 253 261 276 277 279
210 270 291 288 15 89 54 50 154 127 101 106 243 294 303 297 260 208 197 165 151 143 141 143 145 149 154 154 165 175 181 207 241 254 267 270 254 257 268 276 278 285 287 291
182 237 310 325 35 34 121 123 71 82 115 111 194 227 222 216 204 182 155 149 154 153 151 150 157 166 171 176 185 187 187 203 224 231 237 240 251 262 267 276 285 284 285 290
86 117 326 352 20 348 21 42 92 102 132 138 185 251 221 196 185 166 164 165 167 168 166 172 178 182 183 189 193 197 204 213 229 234 242 253 255 258 262 264 267 265 265 272
56 108 326 296 289 232 173 171 138 126 138 136 143 257 277 166 162 155 167 178 179 175 179 183 187 193 204 212 217 219 224 231 236 238 243 249 254 259 260 260 261 258 258 259
96 90 37 346 342 342 287 187 153 131 115 126 136 223 233 149 158 171 176 182 183 184 185 191 203 219 231 234 236 235 238 240 240 242 252 264 268 266 263 262 261 259 257 258
111 103 150 201 243 271 289 259 160 126 137 167 172 174 193 184 182 194 188 185 187 190 189 197 223 243 252 250 245 244 250 244 243 251 260 268 270 267 267 269 270 268 264 261
97 131 251 262 290 327 313 287 204 159 169 164 181 175 199 197 191 192 190 189 173 169 183 198 215 239 256 262 259 256 254 250 250 259 266 267 271 273 274 277 277 276 272 273
92 134 358 326 319 329 321 312 219 142 148 140 136 181 208 198 189 191 182 159 150 170 191 196 211 245 266 268 264 259 251 252 252 262 268 273 281 283 283 283 284 283 279 275
134 126 94 294 312 353 319 273 165 149 161 151 165 188 187 184 186 177 157 150 169 192 199 212 239 254 264 267 257 251 249 253 261 268 273 280 285 288 288 293 295 288 285 280
153 135 141 239 9 319 259 264 167 135 113 140 141 160 170 169 164 168 167 171 189 198 207 232 248 259 266 262 260 256 256 265 274 279 283 286 289 292 293 292 290 287 283 282
156 148 150 151 223 272 289 286 174 127 50 140 140 153 154 147 104 250 209 190 194 201 207 222 233 242 259 272 266 263 275 282 287 288 289 289 293 297 298 298 296 293 291 289
108 121 142 167 201 247 258 268 130 98 106 216 160 163 163 141 131 249 229 202 195 198 205 216 232 248 278 280 270 273 284 292 290 288 289 289 292 296 298 297 296 294 291 288
34 33 176 209 229 257 248 226 97 114 231 213 185 178 172 177 199 209 194 188 189 191 198 194 207 259 270 273 275 291 296 293 287 290 293 295 296 296 296 296 296 296 295 293
202 195 227 183 212 264 246 204 178 215 211 197 190 186 184 195 202 189 176 178 179 181 188 190 213 267 281 282 301 305 295 286 291 299 303 302 300 304 311 303 302 298 295 295
195 192 195 190 215 235 231 218 217 187 190 201 194 194 180 180 188 182 177 176 180 182 192 198 201 258 294 271 184 287 284 291 303 311 309 305 305 304 301 300 301 303 298 296
290 238 198 263 266 256 250 246 234 202 202 205 194 187 176 182 185 179 173 177 181 188 193 187 181 208 240 242 252 261 281 299 312 311 308 307 310 309 307 303 297 297 297 297
258 289 300 288 287 303 287 244 226 218 213 206 199 190 186 180 180 176 176 181 186 188 187 177 180 200 225 239 256 269 282 302 309 307 305 307 307 306 309 306 298 293 285 278
245 239 230 248 249 225 248 253 239 228 229 213 200 203 197 183 179 174 178 182 182 181 175 175 182 197 221 235 253 269 266 281 304 308 309 309 310 310 309 310 311 300 288 284
Height
1506 1513 1516 1510 1507 1509 1510 1514 1518 1516 1512 1517 1524 1529 1529 1528 1529 1531 1531 1531 1532 1532 1534 1534 1534 1534 1533 1533 1532 1532 1531 1530 1529 1527 1526 1525 1523 1521 1519 1517 1515 1514 1513 1511
1510 1513 1503 1500 1499 1502 1505 1513 1517 1516 1514 1520 1527 1531 1531 1530 1530 1531 1531 1531 1531 1532 1533 1533 1533 1533 1532 1531 1530 1529 1528 1527 1526 1524 1523 1521 1520 1518 1515 1513 1512 1510 1509 1508
1509 1505 1498 1498 1498 1502 1505 1511 1514 1520 1521 1525 1531 1539 1534 1531 1529 1529 1529 1529 1530 1531 1531 1531 1531 1531 1530 1529 1528 1527 1526 1524 1523 1521 1520 1518 1516 1514 1511 1509 1507 1506 1505 1504
1502 1498 1496 1497 1499 1499 1510 1500 1503 1513 1527 1538 1535 1547 1537 1532 1531 1529 1529 1528 1528 1529 1529 1529 1529 1528 1528 1527 1526 1525 1524 1522 1521 1519 1517 1515 1512 1510 1507 1505 1503 1501 1500 1499
1502 1497 1496 1498 1495 1495 1501 1497 1503 1512 1527 1538 1538 1544 1539 1533 1533 1529 1527 1526 1527 1527 1527 1526 1526 1526 1526 1526 1525 1524 1522 1520 1518 1516 1514 1511 1509 1507 1504 1502 1499 1498 1496 1495
1498 1494 1493 1492 1490 1491 1496 1505 1514 1523 1532 1547 1542 1544 1541 1532 1528 1525 1524 1524 1524 1525 1525 1525 1526 1526 1526 1525 1524 1522 1520 1518 1516 1514 1511 1509 1506 1504 1501 1498 1496 1494 1493 1492
1506 1496 1491 1490 1493 1494 1498 1515 1534 1539 1550 1552 1541 1543 1538 1522 1519 1520 1521 1521 1523 1524 1524 1525 1525 1525 1524 1523 1522 1520 1518 1516 1513 1511 1509 1506 1503 1501 1498 1495 1493 1491 1488 1487
1519 1515 1495 1489 1492 1496 1498 1510 1532 1542 1552 1553 1545 1544 1532 1516 1515 1517 1518 1520 1522 1523 1523 1524 1524 1523 1522 1521 1519 1517 1515 1513 1511 1508 1505 1503 1500 1497 1494 1492 1489 1486 1484 1482
1520 1515 1492 1487 1486 1489 1499 1506 1508 1529 1542 1554 1549 1540 1527 1516 1516 1516 1518 1519 1521 1522 1522 1522 1522 1521 1519 1518 1516 1514 1512 1510 1507 1504 1502 1499 1496 1493 1491 1488 1485 1482 1480 1477
1507 1513 1499 1489 1488 1489 1493 1497 1513 1528 1546 1553 1547 1543 1538 1523 1519 1517 1517 1518 1519 1520 1521 1520 1519 1518 1516 1515 1513 1511 1508 1506 1503 1501 1498 1495 1492 1489 1486 1483 1481 1478 1476 1474
1500 1511 1507 1499 1498 1499 1497 1501 1513 1527 1533 1549 1553 1544 1518 1516 1515 1515 1516 1516 1518 1518 1518 1518 1516 1515 1513 1512 1510 1507 1505 1502 1500 1497 1494 1491 1488 1485 1482 1479 1476 1474 1472 1470
1499 1513 1518 1506 1495 1491 1494 1499 1510 1526 1529 1536 1544 1541 1510 1510 1511 1512 1514 1515 1516 1516 1515 1515 1513 1512 1510 1508 1506 1503 1501 1498 1495 1493 1490 1487 1484 1480 1477 1475 1472 1470 1467 1465
1499 1515 1529 1525 1514 1499 1495 1495 1501 1513 1525 1533 1542 1535 1512 1510 1511 1511 1512 1513 1513 1513 1512 1512 1511 1509 1507 1504 1501 1499 1496 1494 1491 1488 1485 1482 1479 1476 1473 1470 1467 1465 1462 1460
1496 1512 1525 1531 1522 1505 1499 1494 1496 1507 1524 1524 1524 1522 1515 1512 1511 1510 1510 1510 1510 1510 1509 1509 1507 1505 1503 1500 1497 1494 1492 1489 1487 1484 1481 1478 1474 1471 1468 1465 1462 1459 1457 1454
1496 1508 1504 1504 1498 1494 1494 1491 1490 1498 1505 1514 1513 1515 1512 1509 1507 1507 1507 1507 1507 1507 1507 1505 1503 1501 1499 1496 1493 1490 1488 1485 1482 1479 1476 1473 1469 1466 1463 1459 1456 1453 1450 1447
1498 1505 1505 1506 1496 1494 1493 1488 1486 1490 1493 1499 1506 1509 1503 1503 1504 1503 1503 1503 1504 1504 1503 1502 1499 1497 1494 1491 1489 1486 1483 1481 1478 1475 1471 1468 1464 1461 1457 1453 1450 1446 1443 1440
1500 1505 1512 1517 1505 1500 1505 1490 1487 1488 1487 1493 1502 1502 1499 1502 1501 1500 1500 1500 1500 1500 1499 1498 1495 1493 1490 1487 1484 1482 1479 1476 1473 1470 1466 1463 1459 1455 1451 1447 1443 1439 1436 1432
1497 1505 1514 1517 1515 1519 1505 1482 1480 1484 1486 1486 1490 1493 1494 1496 1496 1496 1496 1497 1497 1496 1495 1494 1491 1489 1486 1483 1480 1478 1475 1472 1468 1465 1461 1458 1454 1449 1445 1441 1436 1432 1429 1425
1486 1498 1510 1519 1520 1513 1495 1482 1480 1486 1493 1487 1489 1491 1493 1494 1495 1495 1494 1493 1493 1492 1491 1490 1488 1485 1483 1480 1476 1473 1470 1467 1463 1460 1456 1452 1448 1443 1439 1434 1430 1426 1422 1419
1485 1491 1505 1513 1517 1519 1499 1480 1476 1484 1496 1487 1486 1487 1488 1490 1497 1493 1490 1490 1489 1489 1488 1486 1484 1482 1479 1476 1472 1469 1466 1462 1458 1454 1450 1446 1442 1437 1433 1428 1424 1420 1416 1413
1496 1499 1505 1510 1513 1503 1483 1476 1477 1495 1494 1481 1481 1481 1482 1483 1486 1485 1485 1485 1486 1485 1484 1483 1480 1478 1475 1472 1468 1465 1461 1457 1453 1449 1445 1441 1437 1432 1427 1423 1419 1415 1411 1407
1498 1503 1505 1508 1510 1503 1476 1474 1479 1479 1472 1473 1474 1475 1476 1477 1478 1480 1480 1481 1481 1481 1480 1479 1476 1474 1471 1467 1464 1460 1456 1452 1447 1443 1439 1435 1431 1427 1422 1418 1414 1410 1407 1402
1491 1492 1493 1494 1493 1476 1470 1469 1468 1467 1467 1468 1469 1470 1471 1472 1473 1474 1475 1476 1476 1476 1476 1474 1472 1469 1466 1463 1459 1455 1451 1446 1442 1438 1434 1430 1425 1421 1418 1414 1409 1406 1402 1398
1484 1479 1482 1482 1475 1468 1466 1465 1464 1463 1463 1462 1463 1464 1465 1466 1467 1469 1469 1470 1471 1471 1470 1469 1467 1465 1462 1458 1455 1450 1446 1441 1437 1433 1429 1425 1421 1417 1413 1410 1406 1402 1398 1394
1482 1478 1479 1478 1470 1465 1462 1461 1460 1459 1459 1459 1459 1459 1460 1461 1462 1463 1463 1464 1465 1465 1465 1464 1462 1460 1457 1454 1450 1445 1441 1437 1433 1429 1425 1421 1417 1413 1409 1405 1402 1398 1394 1391
1474 1475 1476 1475 1465 1463 1459 1457 1456 1455 1455 1454 1454 1455 1455 1456 1456 1457 1457 1459 1459 1460 1460 1459 1457 1455 1453 1449 1445 1441 1437 1433 1429 1424 1420 1417 1414 1410 1406 1402 1397 1394 1391 1387